Wheeling, WV

3:52 AM EDT on May 23, 2017 (GMT -0400)
Wheeling-Ohio County

Weather History for KHLG - October, 2012

Change the Weather History Date:

Tuesday, October 9, 2012

  Actual Average Record
Temperature  
Mean Temperature 45 °F 56 °F  
Max Temperature 59 °F 65 °F 86 °F (1949)
Min Temperature 31 °F 46 °F 31 °F (2012)
Degree Days  
Heating Degree Days 20 10  
Month to date heating degree days 89 78  
Since 1 July heating degree days 214 179  
Cooling Degree Days 0    
Month to date cooling degree days 6  
Year to date cooling degree days 980  
Moisture  
Dew Point 37 °F    
Average Humidity 72    
Maximum Humidity 100    
Minimum Humidity 43    
Precipitation  
Precipitation 0.01 in 0.08 in 0.72 in (1984)
Month to date precipitation 0.43 0.75  
Sea Level Pressure  
Sea Level Pressure 30.16 in    
Wind  
Wind Speed 4 mph (SSW)    
Max Wind Speed 13 mph    
Max Gust Speed 26 mph    
Visibility 6 miles    
Events Fog    
T = Trace of Precipitation, MM = Missing Value Source: NWS Daily Summary

Daily Weather History Graph

Daily Weather History Graph

Search for Another Location

Airport or City:

Trip Planner

Search our weather history database for the weather conditions in past years. The results will help you decide how hot, cold, wet, or windy it might be!

Date:

Astronomy

Oct. 09, 2012 Rise Set
Actual Time 7:27 AM EDT 6:51 PM EDT
Civil Twilight 7:00 AM EDT 7:18 PM EDT
Nautical Twilight 6:28 AM EDT 7:49 PM EDT
Astronomical Twilight 5:57 AM EDT 8:21 PM EDT
Moon 1:02 AM EDT (10/9) 3:18 PM EDT (10/9)
Length of Visible Light 12h 18m
Length of Day
11h 23m
Last Quarter, 37% of the Moon is Illuminated
Oct 9
Last Quarter
Oct 15
New
Oct 21
First Quarter
Oct 29
Full
Nov 6
Last Quarter

Hourly Weather History & Observations

Time (EDT) Temp. Windchill Dew Point Humidity Pressure Visibility Wind Dir Wind Speed Gust Speed Precip Events Conditions
12:53 AM 37.9 °F - 36.0 °F 93% 30.22 in 10.0 mi Calm Calm - N/A   Clear
1:53 AM 39.0 °F - 36.0 °F 89% 30.22 in 10.0 mi Calm Calm - N/A   Clear
2:53 AM 36.0 °F - 35.1 °F 97% 30.22 in 4.0 mi Calm Calm - N/A   Clear
3:24 AM 35.6 °F - 33.8 °F 93% 30.17 in 0.8 mi Calm Calm - N/A   Mist
3:32 AM 33.8 °F - 33.8 °F 100% 30.18 in 0.5 mi Calm Calm - N/A Fog Fog
3:50 AM 33.8 °F - 33.8 °F 100% 30.17 in 0.2 mi Calm Calm - N/A Fog Fog
4:36 AM 32.0 °F - 32.0 °F 100% 30.17 in 0.2 mi Calm Calm - N/A Fog Fog
4:53 AM 32.0 °F - 30.9 °F 96% 30.21 in 0.2 mi Calm Calm - N/A Fog Fog
5:26 AM 32.0 °F - 30.2 °F 93% 30.17 in 0.2 mi Calm Calm - N/A Fog Fog
5:34 AM 30.2 °F - 30.2 °F 100% 30.17 in 0.2 mi Calm Calm - N/A Fog Light Freezing Fog
5:53 AM 30.9 °F - 30.0 °F 96% 30.22 in 0.2 mi Calm Calm - N/A Fog Light Freezing Fog
6:53 AM 32.0 °F - 30.9 °F 96% 30.23 in 0.2 mi Calm Calm - N/A Fog Fog
7:53 AM 32.0 °F - 30.9 °F 96% 30.22 in 0.2 mi Calm Calm - N/A Fog Fog
8:53 AM 33.1 °F - 33.1 °F 100% 30.24 in 0.2 mi Calm Calm - 0.01 in Fog Fog
9:53 AM 37.9 °F - 37.9 °F 100% 30.24 in 0.2 mi Calm Calm - N/A Fog Fog
10:53 AM 41.0 °F - 41.0 °F 100% 30.22 in 0.2 mi Calm Calm - N/A Fog Fog
11:03 AM 42.8 °F 41.1 °F 41.0 °F 93% 30.18 in 0.8 mi SE 3.5 mph - N/A   Mist
11:08 AM 42.8 °F - 41.0 °F 93% 30.18 in 2.0 mi Calm Calm - N/A   Overcast
11:15 AM 42.8 °F - 41.0 °F 93% 30.18 in 9.0 mi Calm Calm - N/A   Overcast
11:26 AM 44.6 °F 43.1 °F 41.0 °F 87% 30.18 in 10.0 mi SW 3.5 mph - N/A   Mostly Cloudy
11:46 AM 46.4 °F 45.2 °F 41.0 °F 81% 30.17 in 10.0 mi Variable 3.5 mph - N/A   Scattered Clouds
11:53 AM 46.9 °F - 42.1 °F 83% 30.20 in 10.0 mi SW 3.5 mph - N/A   Mostly Cloudy
12:00 PM 48.2 °F - 42.8 °F 82% 30.17 in 10.0 mi West 4.6 mph - N/A   Scattered Clouds
12:53 PM 52.0 °F - 41.0 °F 66% 30.17 in 10.0 mi Variable 3.5 mph - N/A   Clear
1:53 PM 55.0 °F - 39.9 °F 57% 30.14 in 10.0 mi SSW 9.2 mph 16.1 mph N/A   Partly Cloudy
2:53 PM 57.0 °F - 39.9 °F 53% 30.11 in 10.0 mi SSW 10.4 mph - N/A   Partly Cloudy
3:53 PM 57.9 °F - 36.0 °F 44% 30.09 in 10.0 mi SW 8.1 mph - N/A   Clear
4:53 PM 59.0 °F - 37.0 °F 44% 30.08 in 10.0 mi Variable 3.5 mph - N/A   Clear
5:53 PM 57.0 °F - 36.0 °F 45% 30.08 in 10.0 mi SSW 8.1 mph - N/A   Clear
6:53 PM 53.1 °F - 36.0 °F 52% 30.07 in 10.0 mi SSW 4.6 mph - N/A   Clear
7:53 PM 50.0 °F - 37.0 °F 61% 30.06 in 10.0 mi SSE 6.9 mph - N/A   Clear
8:53 PM 50.0 °F - 39.0 °F 66% 30.06 in 10.0 mi SSE 9.2 mph - N/A   Clear
9:53 PM 48.0 °F - 39.9 °F 74% 30.06 in 10.0 mi South 8.1 mph - N/A   Clear
10:53 PM 48.0 °F - 39.9 °F 74% 30.04 in 10.0 mi South 8.1 mph - N/A   Clear
11:53 PM 45.0 °F 41.2 °F 39.9 °F 82% 30.04 in 10.0 mi South 6.9 mph - N/A   Clear